SL-12 R/B(2), 18578

Orbit data source: Space-Track

SL-12 R/B(2), 18578 is space debris in GEO originally from a launch on Thu, 26 Nov 1987 UTC launched from the Tyuratam Missile And Space Complex (TTMTR). Debris objects in space refer to the collection of defunct objects orbiting the Earth. Examples of debris include non-operational satellites, rocket bodies, and fragments generated from explosions, collisions, or faulty payload assembly.

Loading next visibility...
Identifier
18578, 1987-096D
Orbit
GEO
Last TLE update
10 hours ago
Origin
Manufacturer
NPO Energiya
Mission
Spacecraft
Bus & Motor
BLOK DM, Unknown motor
Mass
2,440 kg wet, 2,440 kg dry
Launch date (UTC)
1987-11-26 (37 years ago)
Launch vehicle
Unknown
Launch site
Tyuratam Missile And Space Complex (TTMTR)
Object type
Payload
Rocket body
Debris
Shape & HBR
Cyl, 6.27 m
Radar Cross Section
23.597 m², Large (>1 m²)

Expand to show TLE details & history

TLE from 10 hours ago
0 SL-12 R/B(2)
1 18578U 87096D   25128.87452091 -.00000252  00000-0  00000-0 0  9993
2 18578  11.3832 328.8362 0021960 235.3507 299.0709  1.00562214133963
Epoch: 2025-05-08T20:59Z
Definitive object data (Epoch: 2025-05-08T20:59:18.606Z)
Latitude
1.125°
Longitude
-38.60351°
Altitude
35,660.027 km
Speed
3.081 km/s
True Right ascension
09h 32m 39s
True Declination
1° 07' 26"
Sunlit
Object was in daylight at TLE epoch
Visualization TLE readout
Latitude
-6.29184°
Longitude
113.81317°
Altitude
35,706.943 km
Speed
3.078 km/s
Apparent Right ascension
20h 08m 12s
Apparent Declination
-12° 10' 14"
Sunlit
Object is in daylight
Visualization observer readout
Local Sidereal Time
15:11:00
Azimuth
109.401° ESE
Elevation
3.875°
Doppler factor
1
Orbital elements
Apogee altitude
35,798.802 km
Perigee altitude
35,613.967 km
Semi-major axis
42,084.521 km
Eccentricity
0.002196
Inclination
11.3832°
RAAN
328.8362°
Arg. of periapsis
235.3507°
True anomaly
298.85067°
Mean anomaly
299.0709°
Eccentric anomaly
298.96081°
Mean motion
0.2514 °/min
BSTAR
Unknown
Orbital period
1432 mins
Loading historical data...
18578 neighbors
Loading maneuver chart data...
Loading SW <> Apogee altitude chart data...
Loading historical data...
Loading historical data...
Loading historical data...
Loading historical data...
Loading historical data...
Loading historical data...
Loading historical data...

SL-12 R/B(2) Visibility forecast

Observer location: undefined°, undefined°

Span
Click to sort rows by Start time (UTC) header in descending order
Start Az.
Max El. time (UTC)
Max El. Az.
Max El.
End time (UTC)
End Az.
620 mins2025-05-09 09:59:04.294Z103.468° ESE2025-05-09 14:53:04.294Z95.896° ESE15.735°2025-05-09 20:19:04.294Z102.645° ESE
|